Weather History for Jefferson, NC

Change the Weather History Date:

Friday, January 30, 2004

  Actual Average Record
Temperature  
Mean Temperature 29 °F -  
Max Temperature 35 °F 44 °F 73 °F (2002)
Min Temperature 21 °F 22 °F -10 °F (1966)
Degree Days  
Heating Degree Days 36    
Moisture  
Dew Point 18 °F    
Average Humidity 61    
Maximum Humidity 80    
Minimum Humidity 30    
Precipitation  
Precipitation 0.00 in - - ()
Sea Level Pressure  
Sea Level Pressure 29.67 in    
Wind  
Wind Speed 27 mph (WNW)    
Max Wind Speed 41 mph    
Max Gust Speed 61 mph    
Visibility 8 miles    
Events Snow    
Averages and records for this station are not official NWS values.
T = Trace of Precipitation, MM = Missing Value Source: NWS Daily Summary

Daily Weather History Graph

Daily Weather History Graph

Search for Another Location

Airport:

Trip Planner

Search our weather history database for the weather conditions in past years. The results will help you decide how hot, cold, wet, or windy it might be!

Date:

Astronomy

Jan. 30, 2004 Rise Set
Actual Time 7:29 AM EST 5:49 PM EST
Civil Twilight 7:01 AM EST 6:16 PM EST
Nautical Twilight 6:30 AM EST 6:47 PM EST
Astronomical Twilight 6:00 AM EST 7:17 PM EST
Moon 12:20 PM EST (1/30) 2:00 AM EST (1/30)
Length of Visible Light 11h 14m
Length of Day
10h 20m
Waxing Gibbous, 64% of the Moon is Illuminated
Jan 30
Waxing Gibbous
Feb 6
Full
Feb 13
Last Quarter
Feb 20
New
Feb 27
First Quarter

Hourly Weather History & Observations

Time (EST) Temp. Windchill Dew Point Humidity Pressure Visibility Wind Dir Wind Speed Gust Speed Precip Events Conditions
12:00 AM 35.6 °F 25.2 °F 12.2 °F 38% 29.79 in 10.0 mi West 18.4 mph 33.4 mph N/A   Scattered Clouds
12:23 AM 35.6 °F 28.0 °F 10.4 °F 35% 29.78 in 10.0 mi West 10.4 mph 26.5 mph N/A   Clear
12:40 AM 35.6 °F 25.5 °F 8.6 °F 33% 29.77 in 10.0 mi West 17.3 mph 28.8 mph N/A   Clear
1:01 AM 35.6 °F 25.2 °F 6.8 °F 30% 29.76 in 10.0 mi West 18.4 mph 31.1 mph N/A   Clear
1:20 AM 35.6 °F 25.9 °F 6.8 °F 30% 29.75 in 10.0 mi West 16.1 mph 25.3 mph N/A   Clear
1:40 AM 35.6 °F 24.8 °F 8.6 °F 33% 29.73 in 10.0 mi West 19.6 mph 33.4 mph N/A   Clear
2:00 AM 35.6 °F 22.1 °F 8.6 °F 33% 29.72 in 10.0 mi West 32.2 mph 48.3 mph N/A   Scattered Clouds
2:20 AM 35.6 °F 21.7 °F 8.6 °F 33% 29.71 in 10.0 mi West 34.5 mph 52.9 mph N/A   Scattered Clouds
2:40 AM 33.8 °F 20.3 °F 8.6 °F 35% 29.70 in 10.0 mi West 28.8 mph 43.7 mph N/A   Scattered Clouds
3:00 AM 32.0 °F 17.9 °F 10.4 °F 41% 29.69 in 10.0 mi West 28.8 mph 51.8 mph N/A   Scattered Clouds
3:20 AM 32.0 °F 16.5 °F 15.8 °F 51% 29.68 in 10.0 mi West 35.7 mph 47.2 mph N/A   Clear
3:40 AM 30.2 °F 14.3 °F 15.8 °F 55% 29.68 in 10.0 mi West 34.5 mph 43.7 mph N/A   Clear
4:00 AM 30.2 °F 14.9 °F 15.8 °F 55% 29.68 in 10.0 mi West 31.1 mph 41.4 mph N/A   Scattered Clouds
4:20 AM 30.2 °F 15.4 °F 19.4 °F 64% 29.70 in 5.0 mi West 28.8 mph 46.0 mph N/A Snow Light Snow
4:40 AM 30.2 °F 15.4 °F 21.2 °F 69% 29.70 in 1.5 mi WNW 28.8 mph 46.0 mph N/A Snow Light Snow
5:00 AM 30.2 °F 15.4 °F 24.8 °F 80% 29.70 in 1.0 mi West 28.8 mph 42.6 mph N/A Snow Light Snow
5:20 AM 30.2 °F 16.2 °F 24.8 °F 80% 29.70 in 0.8 mi WNW 25.3 mph 39.1 mph N/A Snow Snow
5:40 AM 30.2 °F 14.5 °F 23.0 °F 75% 29.68 in 1.5 mi West 33.4 mph 47.2 mph N/A Snow Light Snow
6:02 AM 30.2 °F 14.7 °F 24.8 °F 80% 29.68 in 2.0 mi West 32.2 mph 43.7 mph N/A Snow Light Snow
6:20 AM 30.2 °F 15.7 °F 24.8 °F 80% 29.68 in 3.0 mi WNW 27.6 mph 41.4 mph N/A Snow Light Snow
6:40 AM 30.2 °F 13.7 °F 23.0 °F 75% 29.68 in 7.0 mi West 38.0 mph 47.2 mph N/A   Clear
7:01 AM 30.2 °F 14.9 °F 24.8 °F 80% 29.69 in 7.0 mi WNW 31.1 mph 46.0 mph N/A   Haze
7:22 AM 30.2 °F 14.7 °F 24.8 °F 80% 29.68 in 7.0 mi West 32.2 mph 44.9 mph N/A   Mostly Cloudy
7:40 AM 30.2 °F 13.9 °F 24.8 °F 80% 29.68 in 2.5 mi West 36.8 mph 54.1 mph N/A   Haze
8:02 AM 30.2 °F 14.3 °F 24.8 °F 80% 29.69 in 2.5 mi WNW 34.5 mph 54.1 mph N/A   Haze
8:21 AM 30.2 °F 14.3 °F 24.8 °F 80% 29.68 in 3.0 mi WNW 34.5 mph 56.4 mph N/A Snow Light Snow
8:42 AM 30.2 °F 14.1 °F 23.0 °F 75% 29.68 in 3.0 mi WNW 35.7 mph 57.5 mph N/A   Haze
9:00 AM 30.2 °F 15.2 °F 23.0 °F 75% 29.69 in 2.5 mi WNW 29.9 mph 52.9 mph N/A   Haze
9:20 AM 30.2 °F 14.1 °F 23.0 °F 75% 29.67 in 3.0 mi WNW 35.7 mph 48.3 mph N/A   Haze
9:40 AM 30.2 °F 14.7 °F 23.0 °F 75% 29.67 in 3.0 mi West 32.2 mph 50.6 mph N/A   Haze
10:02 AM 30.2 °F 14.1 °F 23.0 °F 75% 29.65 in 4.0 mi WNW 35.7 mph 59.8 mph N/A   Haze
10:20 AM 32.0 °F 16.3 °F 21.2 °F 64% 29.67 in 7.0 mi WNW 36.8 mph 48.3 mph N/A   Scattered Clouds
10:40 AM 32.0 °F 17.6 °F 23.0 °F 69% 29.67 in 5.0 mi WNW 29.9 mph 40.3 mph N/A   Haze
11:01 AM 30.2 °F 13.9 °F 21.2 °F 69% 29.66 in 7.0 mi WNW 36.8 mph 58.7 mph N/A   Scattered Clouds
11:20 AM 32.0 °F 16.5 °F 21.2 °F 64% 29.66 in 10.0 mi West 35.7 mph 58.7 mph N/A   Scattered Clouds
11:42 AM 32.0 °F 17.4 °F 21.2 °F 64% 29.66 in 10.0 mi WNW 31.1 mph 47.2 mph N/A   Scattered Clouds
12:00 PM 30.2 °F 14.3 °F 21.2 °F 69% 29.65 in 10.0 mi West 34.5 mph 59.8 mph N/A   Mostly Cloudy
12:20 PM 30.2 °F 13.7 °F 21.2 °F 69% 29.64 in 10.0 mi West 38.0 mph 49.5 mph N/A   Mostly Cloudy
12:40 PM 30.2 °F 14.9 °F 19.4 °F 64% 29.63 in 10.0 mi WNW 31.1 mph 48.3 mph N/A   Scattered Clouds
1:02 PM 30.2 °F 14.1 °F 19.4 °F 64% 29.62 in 10.0 mi WNW 35.7 mph 61.0 mph N/A   Clear
1:20 PM 30.2 °F 13.1 °F 17.6 °F 60% 29.62 in 10.0 mi West 41.4 mph 51.8 mph N/A   Clear
1:40 PM 30.2 °F 14.7 °F 19.4 °F 64% 29.62 in 10.0 mi West 32.2 mph 47.2 mph N/A   Scattered Clouds
2:00 PM 30.2 °F 13.7 °F 17.6 °F 60% 29.61 in 10.0 mi West 38.0 mph 52.9 mph N/A   Clear
2:20 PM 30.2 °F 14.5 °F 17.6 °F 60% 29.61 in 10.0 mi WNW 33.4 mph 52.9 mph N/A   Clear
2:40 PM 30.2 °F 13.9 °F 15.8 °F 55% 29.61 in 10.0 mi West 36.8 mph 55.2 mph N/A   Clear
3:00 PM 30.2 °F 15.7 °F 17.6 °F 60% 29.62 in 10.0 mi West 27.6 mph 47.2 mph N/A   Clear
3:22 PM 30.2 °F 15.4 °F 17.6 °F 60% 29.61 in 10.0 mi West 28.8 mph 49.5 mph N/A   Clear
3:40 PM 30.2 °F 16.5 °F 15.8 °F 55% 29.62 in 10.0 mi WNW 24.2 mph 40.3 mph N/A   Clear
4:00 PM 30.2 °F 15.9 °F 15.8 °F 55% 29.62 in 10.0 mi West 26.5 mph 40.3 mph N/A   Clear
4:22 PM 26.6 °F 11.1 °F 15.8 °F 64% 29.62 in 10.0 mi WNW 26.5 mph 49.5 mph N/A   Clear
4:42 PM 26.6 °F 11.1 °F 15.8 °F 64% 29.63 in 10.0 mi West 26.5 mph 41.4 mph N/A   Clear
5:00 PM 26.6 °F 9.6 °F 14.0 °F 59% 29.63 in 10.0 mi West 33.4 mph 47.2 mph N/A   Clear
5:20 PM 24.8 °F 9.0 °F 14.0 °F 64% 29.64 in 10.0 mi West 25.3 mph 38.0 mph N/A   Clear
5:40 PM 24.8 °F 8.7 °F 15.8 °F 69% 29.63 in 5.0 mi West 26.5 mph 42.6 mph N/A   Scattered Clouds
6:00 PM 24.8 °F 8.7 °F 15.8 °F 69% 29.64 in 2.0 mi WNW 26.5 mph 43.7 mph N/A Snow Light Snow
6:22 PM 24.8 °F 8.4 °F 10.4 °F 54% 29.65 in 10.0 mi WNW 27.6 mph 41.4 mph N/A   Scattered Clouds
6:42 PM 24.8 °F 10.0 °F 10.4 °F 54% 29.66 in 10.0 mi West 21.9 mph 38.0 mph N/A   Scattered Clouds
7:00 PM 23.0 °F 7.2 °F 10.4 °F 59% 29.68 in 10.0 mi West 23.0 mph 33.4 mph N/A   Mostly Cloudy
7:20 PM 21.2 °F 3.9 °F 10.4 °F 63% 29.67 in 5.0 mi West 26.5 mph 39.1 mph N/A Snow Light Snow
7:41 PM 21.2 °F 3.9 °F 10.4 °F 63% 29.67 in 3.0 mi West 26.5 mph 35.7 mph N/A Snow Light Snow
8:00 PM 21.2 °F 3.9 °F 10.4 °F 63% 29.67 in 3.0 mi WNW 26.5 mph 43.7 mph N/A Snow Light Snow
8:20 PM 21.2 °F 4.2 °F 12.2 °F 68% 29.68 in 3.0 mi West 25.3 mph 41.4 mph N/A Snow Light Snow
8:40 PM 19.4 °F 0.8 °F 10.4 °F 68% 29.68 in 2.5 mi West 28.8 mph 40.3 mph N/A Snow Light Snow
9:00 PM 19.4 °F 3.2 °F 12.2 °F 74% 29.69 in 1.5 mi West 20.7 mph 38.0 mph N/A Snow Light Snow
9:20 PM 19.4 °F 3.6 °F 12.2 °F 74% 29.70 in 2.5 mi West 19.6 mph 33.4 mph N/A Snow Light Snow
9:40 PM 19.4 °F 5.0 °F 10.4 °F 68% 29.71 in 5.0 mi WNW 16.1 mph 29.9 mph N/A Snow Light Snow
10:00 PM 17.6 °F 0.1 °F 8.6 °F 68% 29.69 in 7.0 mi WNW 23.0 mph 33.4 mph N/A Snow Light Snow
10:20 PM 17.6 °F 1.7 °F 8.6 °F 68% 29.68 in 10.0 mi NW 18.4 mph 36.8 mph N/A   Scattered Clouds
10:40 PM 17.6 °F -1.9 °F 8.6 °F 68% 29.68 in 10.0 mi WNW 29.9 mph 41.4 mph N/A Snow Light Snow
11:00 PM 17.6 °F 1.3 °F 8.6 °F 68% 29.71 in 10.0 mi WNW 19.6 mph 33.4 mph N/A   Scattered Clouds
11:20 PM 17.6 °F 3.2 °F 8.6 °F 68% 29.73 in 7.0 mi WNW 15.0 mph 48.3 mph N/A Snow Light Snow
11:40 PM 15.8 °F -0.6 °F 6.8 °F 68% 29.73 in 5.0 mi NW 18.4 mph 28.8 mph N/A Snow Light Snow